STARLINK-4435, 53502

Orbit data source: Space-Track

STARLINK-4435, 53502 is a payload satellite owned by SpaceX/Seattle (US) in SSO that was launched on Fri, 12 Aug 2022 UTC via an FALCON 9 launch vehicle from the Air Force Western Test Range (AFWTR). Payload-class satellites include a variety of spacecraft equipped with specific instruments for various scientific and technological missions. These include communications satellites like Starlink; space stations such as the ISS; scientific satellites like the Hubble; Earth observation satellites from companies like Planet Labs, Umbra, and HawkEye 360; GPS; miniature CubeSats for education and research; and military/defense satellites.

Loading next visibility...
Identifier
53502, 2022-099AP
Orbit
SSO
Country
Flag of USUS
Related business
Manufacturer
SpaceX/Seattle
Mission
Operational Commercial Communications
Bus & Motor
STARLINK, Unknown motor
Mass
300 kg wet, ~275 kg dry
Launch date (UTC)
2022-08-12 (3 years ago)
Launch vehicle
FALCON 9
Launch site
Air Force Western Test Range (AFWTR)
Object type
Payload
Rocket body
Debris
Shape & HBR
Box + 1 Pan, 10.1 m
Radar Cross Section
13.562 m², Large (>1 m²)

Expand to show TLE details & history
Last TLE update: 7 hours ago

TLE from 7 hours ago
0 STARLINK-4435
1 53502U 22099AP  25308.30130970  .00001186  00000-0  86449-4 0  9999
2 53502  97.6050  67.6073 0001466  88.0828 272.0567 15.05636891177181
Epoch: 2025-11-04T07:13Z
TLE epoch observation values (Epoch: 2025-11-04T07:13:53.158Z)
Latitude
0.00004°
Longitude
-84.65449°
Altitude
552.58 km
Speed
7.586 km/s
True Right ascension
04h 30m 25s
True Declination
0° 00' 00"
Sunlit
Object was in full shadow at epoch
Visualization orbit readout
Latitude
Unknown
Longitude
Unknown
Altitude
Unknown
Speed
Unknown
Apparent Right ascension
Unknown
Apparent Declination
Unknown
Sunlit
N/A
Visualization observer readout
Local Sidereal Time
09:44:12
Azimuth
Unknown
Elevation
Unknown
Doppler factor
Unknown
Orbital elements
Apogee altitude
547.56 km
Perigee altitude
545.53 km
Semi-major axis
6,924.682 km
Eccentricity
0.00015
Inclination
97.605°
RAAN
67.6073°
Arg. of periapsis
88.0828°
True anomaly
272.03991°
Mean anomaly
272.0567°
Eccentric anomaly
272.04831°
Mean motion
3.76655 °/min
Orbital period
95.58 mins
BSTAR
0.000086449
Loading maneuver chart data...
Computing Atmospheric mass density...
Loading historical data...
Loading historical data...
Loading historical data...
Loading historical data...
Loading historical data...
Loading historical data...
Loading historical data...

Documentation

Showing up to 5 results
|